Time,TemperatureF,DewpointF,PressureIn,WindDirection,WindDirectionDegrees,WindSpeedMPH,WindSpeedGustMPH,Humidity,HourlyPrecipIn,Conditions,Clouds,dailyrainin,SolarRadiationWatts/m^2,SoftwareType,DateUTC
2013-08-05 00:02:00,82.0,28.0,29.97,South,177,8.0,12.0,14,0.00,,,0.00,0.000000,,2013-08-05 07:02:00,
2013-08-05 00:12:00,82.0,28.0,29.97,South,177,8.0,12.0,14,0.00,,,0.00,0.000000,,2013-08-05 07:12:00,
2013-08-05 00:22:00,82.0,28.0,29.97,South,177,8.0,12.0,14,0.00,,,0.00,0.000000,,2013-08-05 07:22:00,
2013-08-05 00:32:00,79.0,27.0,29.98,SSE,165,10.0,14.0,15,0.00,,,0.00,0.000000,,2013-08-05 07:32:00,
2013-08-05 00:43:00,79.0,27.0,29.98,SSE,165,10.0,14.0,15,0.00,,,0.00,0.000000,,2013-08-05 07:43:00,
2013-08-05 00:53:00,79.0,27.0,29.98,SSE,165,10.0,14.0,15,0.00,,,0.00,0.000000,,2013-08-05 07:53:00,
2013-08-05 01:01:00,78.0,25.0,29.97,South,171,12.0,15.0,14,0.00,,,0.00,0.000000,,2013-08-05 08:01:00,
2013-08-05 01:11:00,78.0,25.0,29.97,South,171,12.0,15.0,14,0.00,,,0.00,0.000000,,2013-08-05 08:11:00,
2013-08-05 01:22:00,78.0,25.0,29.97,South,171,12.0,15.0,14,0.00,,,0.00,0.000000,,2013-08-05 08:22:00,
2013-08-05 01:43:00,81.0,22.0,29.97,SW,218,5.0,7.0,11,0.00,,,0.00,0.000000,,2013-08-05 08:43:00,
2013-08-05 01:54:00,81.0,22.0,29.97,SW,218,5.0,7.0,11,0.00,,,0.00,0.000000,,2013-08-05 08:54:00,
2013-08-05 02:03:00,80.0,25.0,29.96,South,176,9.0,11.0,13,0.00,,,0.00,0.000000,,2013-08-05 09:03:00,
2013-08-05 02:11:00,80.0,25.0,29.96,South,176,9.0,11.0,13,0.00,,,0.00,0.000000,,2013-08-05 09:11:00,
2013-08-05 02:23:00,80.0,25.0,29.96,South,176,9.0,11.0,13,0.00,,,0.00,0.000000,,2013-08-05 09:23:00,
2013-08-05 02:34:00,79.0,27.0,29.96,SW,222,2.0,4.0,15,0.00,,,0.00,0.000000,,2013-08-05 09:34:00,
2013-08-05 02:43:00,79.0,27.0,29.96,SW,222,2.0,4.0,15,0.00,,,0.00,0.000000,,2013-08-05 09:43:00,
2013-08-05 02:53:00,79.0,27.0,29.96,SW,222,2.0,4.0,15,0.00,,,0.00,0.000000,,2013-08-05 09:53:00,
2013-08-05 03:03:00,76.0,29.0,29.96,NNW,336,3.0,4.0,18,0.00,,,0.00,0.000000,,2013-08-05 10:03:00,
2013-08-05 03:12:00,76.0,29.0,29.96,NNW,336,3.0,4.0,18,0.00,,,0.00,0.000000,,2013-08-05 10:12:00,
2013-08-05 03:23:00,76.0,29.0,29.96,NNW,336,3.0,4.0,18,0.00,,,0.00,0.000000,,2013-08-05 10:23:00,
2013-08-05 03:32:00,73.0,27.0,29.97,SSW,210,4.0,5.0,18,0.00,,,0.00,0.000000,,2013-08-05 10:32:00,
2013-08-05 03:53:00,73.0,27.0,29.97,SSW,210,4.0,5.0,18,0.00,,,0.00,0.000000,,2013-08-05 10:53:00,
2013-08-05 04:03:00,72.0,30.0,29.97,SSW,211,2.0,2.0,21,0.00,,,0.00,0.000000,,2013-08-05 11:03:00,
2013-08-05 04:11:00,72.0,30.0,29.97,SSW,211,2.0,2.0,21,0.00,,,0.00,0.000000,,2013-08-05 11:11:00,
2013-08-05 04:24:00,72.0,30.0,29.97,SSW,211,2.0,2.0,21,0.00,,,0.00,0.000000,,2013-08-05 11:24:00,
2013-08-05 04:44:00,70.0,27.0,29.97,SSW,205,5.0,6.0,20,0.00,,,0.00,0.000000,,2013-08-05 11:44:00,
2013-08-05 04:58:00,70.0,27.0,29.97,SSW,205,5.0,6.0,20,0.00,,,0.00,0.000000,,2013-08-05 11:58:00,
2013-08-05 05:11:00,69.0,27.0,29.95,SSW,205,0.0,0.0,21,0.00,,,0.00,0.000000,,2013-08-05 12:11:00,
2013-08-05 05:23:00,69.0,27.0,29.95,SSW,205,0.0,0.0,21,0.00,,,0.00,0.000000,,2013-08-05 12:23:00,
2013-08-05 05:33:00,68.0,27.0,29.96,South,184,3.0,4.0,21,0.00,,,0.00,0.000000,,2013-08-05 12:33:00,
2013-08-05 05:58:00,68.0,27.0,29.96,South,184,3.0,4.0,21,0.00,,,0.00,0.000000,,2013-08-05 12:58:00,
2013-08-05 06:12:00,67.0,28.0,29.97,SSW,199,3.0,6.0,23,0.00,,,0.00,0.000000,,2013-08-05 13:12:00,
2013-08-05 06:23:00,67.0,28.0,29.97,SSW,199,3.0,6.0,23,0.00,,,0.00,0.000000,,2013-08-05 13:23:00,
2013-08-05 06:33:00,68.0,27.0,29.98,WSW,250,3.0,4.0,21,0.00,,,0.00,16.000000,,2013-08-05 13:33:00,
2013-08-05 06:42:00,68.0,27.0,29.98,WSW,250,3.0,4.0,21,0.00,,,0.00,16.000000,,2013-08-05 13:42:00,
2013-08-05 06:54:00,68.0,27.0,29.98,WSW,250,3.0,4.0,21,0.00,,,0.00,16.000000,,2013-08-05 13:54:00,
2013-08-05 07:03:00,69.0,27.0,30.00,West,267,1.0,3.0,21,0.00,,,0.00,97.000000,,2013-08-05 14:03:00,
2013-08-05 07:11:00,69.0,27.0,30.00,West,267,1.0,3.0,21,0.00,,,0.00,97.000000,,2013-08-05 14:11:00,
2013-08-05 07:23:00,69.0,27.0,30.00,West,267,1.0,3.0,21,0.00,,,0.00,97.000000,,2013-08-05 14:23:00,
2013-08-05 07:54:00,74.0,29.0,30.00,SSW,212,2.0,5.0,19,0.00,,,0.00,197.000000,,2013-08-05 14:54:00,
2013-08-05 08:03:00,75.0,29.0,30.02,SSW,212,0.0,2.0,18,0.00,,,0.00,304.000000,,2013-08-05 15:03:00,
2013-08-05 08:12:00,75.0,29.0,30.02,SSW,212,0.0,2.0,18,0.00,,,0.00,304.000000,,2013-08-05 15:12:00,
2013-08-05 08:58:00,78.0,28.0,30.02,SSW,212,1.0,2.0,16,0.00,,,0.00,410.000000,,2013-08-05 15:58:00,
2013-08-05 09:11:00,81.0,27.0,30.02,SSW,212,4.0,5.0,14,0.00,,,0.00,520.000000,,2013-08-05 16:11:00,
2013-08-05 09:23:00,81.0,27.0,30.02,SSW,212,4.0,5.0,14,0.00,,,0.00,520.000000,,2013-08-05 16:23:00,
2013-08-05 09:33:00,83.0,27.0,30.01,NW,320,4.0,6.0,13,0.00,,,0.00,619.000000,,2013-08-05 16:33:00,
2013-08-05 09:42:00,83.0,27.0,30.01,NW,320,4.0,6.0,13,0.00,,,0.00,619.000000,,2013-08-05 16:42:00,
2013-08-05 09:58:00,83.0,27.0,30.01,NW,320,4.0,6.0,13,0.00,,,0.00,619.000000,,2013-08-05 16:58:00,
2013-08-05 10:12:00,85.0,29.0,30.01,North,360,1.0,3.0,13,0.00,,,0.00,712.000000,,2013-08-05 17:12:00,
2013-08-05 10:22:00,85.0,29.0,30.01,North,360,1.0,3.0,13,0.00,,,0.00,712.000000,,2013-08-05 17:22:00,
2013-08-05 10:58:00,88.0,29.0,30.01,North,11,0.0,0.0,12,0.00,,,0.00,798.000000,,2013-08-05 17:58:00,
2013-08-05 11:03:00,91.0,29.0,30.01,ENE,61,0.0,0.0,11,0.00,,,0.00,874.000000,,2013-08-05 18:03:00,
2013-08-05 11:23:00,91.0,29.0,30.01,ENE,61,0.0,0.0,11,0.00,,,0.00,874.000000,,2013-08-05 18:23:00,
2013-08-05 11:43:00,92.0,28.0,30.02,East,87,1.0,3.0,10,0.00,,,0.00,933.000000,,2013-08-05 18:43:00,
2013-08-05 11:54:00,92.0,28.0,30.02,East,87,1.0,3.0,10,0.00,,,0.00,933.000000,,2013-08-05 18:54:00,
2013-08-05 12:03:00,95.0,27.0,30.02,ESE,105,0.0,2.0,9,0.00,,,0.00,981.000000,,2013-08-05 19:03:00,
2013-08-05 12:11:00,95.0,27.0,30.02,ESE,105,0.0,2.0,9,0.00,,,0.00,981.000000,,2013-08-05 19:11:00,
2013-08-05 12:23:00,95.0,27.0,30.02,ESE,105,0.0,2.0,9,0.00,,,0.00,981.000000,,2013-08-05 19:23:00,
2013-08-05 12:33:00,96.0,28.0,30.00,SSE,151,7.0,12.0,9,0.00,,,0.00,1013.000000,,2013-08-05 19:33:00,
2013-08-05 12:55:00,96.0,28.0,30.00,SSE,151,7.0,12.0,9,0.00,,,0.00,1013.000000,,2013-08-05 19:55:00,
2013-08-05 13:03:00,98.0,27.0,29.99,ESE,103,0.0,3.0,8,0.00,,,0.00,1028.000000,,2013-08-05 20:03:00,
2013-08-05 13:12:00,98.0,27.0,29.99,ESE,103,0.0,3.0,8,0.00,,,0.00,1028.000000,,2013-08-05 20:12:00,
2013-08-05 13:24:00,98.0,27.0,29.99,ESE,103,0.0,3.0,8,0.00,,,0.00,1028.000000,,2013-08-05 20:24:00,
2013-08-05 13:33:00,98.0,27.0,29.99,ESE,103,0.0,3.0,8,0.00,,,0.00,1028.000000,,2013-08-05 20:33:00,
2013-08-05 13:43:00,100.0,25.0,29.98,South,173,4.0,5.0,7,0.00,,,0.00,1023.000000,,2013-08-05 20:43:00,
2013-08-05 14:03:00,102.0,23.0,29.98,SSE,161,5.0,14.0,6,0.00,,,0.00,1009.000000,,2013-08-05 21:03:00,
2013-08-05 14:12:00,102.0,23.0,29.98,SSE,161,5.0,14.0,6,0.00,,,0.00,1009.000000,,2013-08-05 21:12:00,
2013-08-05 14:23:00,102.0,23.0,29.98,SSE,161,5.0,14.0,6,0.00,,,0.00,1009.000000,,2013-08-05 21:23:00,
2013-08-05 14:33:00,102.0,18.0,29.96,SSW,202,5.0,10.0,5,0.00,,,0.00,983.000000,,2013-08-05 21:33:00,
2013-08-05 14:43:00,102.0,18.0,29.96,SSW,202,5.0,10.0,5,0.00,,,0.00,983.000000,,2013-08-05 21:43:00,
2013-08-05 14:53:00,102.0,18.0,29.96,SSW,202,5.0,10.0,5,0.00,,,0.00,983.000000,,2013-08-05 21:53:00,
2013-08-05 15:11:00,102.0,23.0,29.96,South,176,7.0,12.0,6,0.00,,,0.00,921.000000,,2013-08-05 22:11:00,
2013-08-05 15:23:00,102.0,23.0,29.96,South,176,7.0,12.0,6,0.00,,,0.00,921.000000,,2013-08-05 22:23:00,
2013-08-05 15:43:00,103.0,23.0,29.95,South,191,11.0,17.0,6,0.00,,,0.00,861.000000,,2013-08-05 22:43:00,
2013-08-05 15:53:00,103.0,23.0,29.95,South,191,11.0,17.0,6,0.00,,,0.00,861.000000,,2013-08-05 22:53:00,
2013-08-05 16:02:00,104.0,20.0,29.94,South,182,17.0,21.0,5,0.00,,,0.00,788.000000,,2013-08-05 23:02:00,
2013-08-05 16:11:00,104.0,20.0,29.94,South,182,17.0,21.0,5,0.00,,,0.00,788.000000,,2013-08-05 23:11:00,
2013-08-05 16:23:00,104.0,20.0,29.94,South,182,17.0,21.0,5,0.00,,,0.00,788.000000,,2013-08-05 23:23:00,
2013-08-05 16:42:00,103.0,19.0,29.93,SSW,211,16.0,24.0,5,0.00,,,0.00,701.000000,,2013-08-05 23:42:00,
2013-08-05 16:59:00,103.0,19.0,29.93,SSW,211,16.0,24.0,5,0.00,,,0.00,701.000000,,2013-08-05 23:59:00,
2013-08-05 17:12:00,103.0,19.0,29.89,South,186,10.0,16.0,5,0.00,,,0.00,610.000000,,2013-08-06 00:12:00,
2013-08-05 17:24:00,103.0,19.0,29.89,South,186,10.0,16.0,5,0.00,,,0.00,610.000000,,2013-08-06 00:24:00,
2013-08-05 17:43:00,102.0,18.0,29.88,SW,216,14.0,18.0,5,0.00,,,0.00,506.000000,,2013-08-06 00:43:00,
2013-08-05 17:57:00,102.0,18.0,29.88,SW,216,14.0,18.0,5,0.00,,,0.00,506.000000,,2013-08-06 00:57:00,
2013-08-05 18:03:00,101.0,18.0,29.88,South,182,13.0,17.0,5,0.00,,,0.00,399.000000,,2013-08-06 01:03:00,
2013-08-05 18:24:00,101.0,18.0,29.88,South,182,13.0,17.0,5,0.00,,,0.00,399.000000,,2013-08-06 01:24:00,
2013-08-05 18:34:00,100.0,21.0,29.88,South,181,15.0,22.0,6,0.00,,,0.00,290.000000,,2013-08-06 01:34:00,
2013-08-05 18:58:00,100.0,21.0,29.88,South,181,15.0,22.0,6,0.00,,,0.00,290.000000,,2013-08-06 01:58:00,
2013-08-05 19:11:00,98.0,16.0,29.87,South,172,23.0,28.0,5,0.00,,,0.00,183.000000,,2013-08-06 02:11:00,
2013-08-05 19:24:00,98.0,16.0,29.87,South,172,23.0,28.0,5,0.00,,,0.00,183.000000,,2013-08-06 02:24:00,
2013-08-05 19:32:00,96.0,22.0,29.88,South,180,4.0,8.0,7,0.00,,,0.00,86.000000,,2013-08-06 02:32:00,
2013-08-05 19:42:00,96.0,22.0,29.88,South,180,4.0,8.0,7,0.00,,,0.00,86.000000,,2013-08-06 02:42:00,
2013-08-05 19:52:00,96.0,22.0,29.88,South,180,4.0,8.0,7,0.00,,,0.00,86.000000,,2013-08-06 02:52:00,
2013-08-05 20:01:00,92.0,19.0,29.89,South,180,5.0,10.0,7,0.00,,,0.00,9.000000,,2013-08-06 03:01:00,
2013-08-05 20:11:00,92.0,19.0,29.89,South,180,5.0,10.0,7,0.00,,,0.00,9.000000,,2013-08-06 03:11:00,
2013-08-05 20:23:00,92.0,19.0,29.89,South,180,5.0,10.0,7,0.00,,,0.00,9.000000,,2013-08-06 03:23:00,
2013-08-05 20:34:00,90.0,18.0,29.90,South,180,9.0,13.0,7,0.00,,,0.00,0.000000,,2013-08-06 03:34:00,
2013-08-05 20:44:00,90.0,18.0,29.90,South,180,9.0,13.0,7,0.00,,,0.00,0.000000,,2013-08-06 03:44:00,
2013-08-05 20:52:00,90.0,18.0,29.90,South,180,9.0,13.0,7,0.00,,,0.00,0.000000,,2013-08-06 03:52:00,
2013-08-05 21:01:00,89.0,17.0,29.90,South,180,0.0,2.0,7,0.00,,,0.00,0.000000,,2013-08-06 04:01:00,
2013-08-05 21:11:00,89.0,17.0,29.90,South,180,0.0,2.0,7,0.00,,,0.00,0.000000,,2013-08-06 04:11:00,
2013-08-05 21:22:00,89.0,17.0,29.90,South,180,0.0,2.0,7,0.00,,,0.00,0.000000,,2013-08-06 04:22:00,
2013-08-05 21:33:00,86.0,21.0,29.92,SE,143,16.0,19.0,9,0.00,,,0.00,0.000000,,2013-08-06 04:33:00,
2013-08-05 21:44:00,86.0,21.0,29.92,SE,143,16.0,19.0,9,0.00,,,0.00,0.000000,,2013-08-06 04:44:00,
2013-08-05 21:53:00,86.0,21.0,29.92,SE,143,16.0,19.0,9,0.00,,,0.00,0.000000,,2013-08-06 04:53:00,
2013-08-05 22:02:00,86.0,21.0,29.92,SE,143,16.0,19.0,9,0.00,,,0.00,0.000000,,2013-08-06 05:02:00,
2013-08-05 22:11:00,85.0,20.0,29.92,SE,146,4.0,9.0,9,0.00,,,0.00,0.000000,,2013-08-06 05:11:00,
2013-08-05 22:21:00,85.0,20.0,29.92,SE,146,4.0,9.0,9,0.00,,,0.00,0.000000,,2013-08-06 05:21:00,
2013-08-05 22:32:00,84.0,24.0,29.92,SSE,162,10.0,14.0,11,0.00,,,0.00,0.000000,,2013-08-06 05:32:00,
2013-08-05 22:43:00,84.0,24.0,29.92,SSE,162,10.0,14.0,11,0.00,,,0.00,0.000000,,2013-08-06 05:43:00,
2013-08-05 22:53:00,84.0,24.0,29.92,SSE,162,10.0,14.0,11,0.00,,,0.00,0.000000,,2013-08-06 05:53:00,
2013-08-05 23:01:00,84.0,24.0,29.94,South,179,14.0,18.0,11,0.00,,,0.00,0.000000,,2013-08-06 06:01:00,
2013-08-05 23:11:00,84.0,24.0,29.94,South,179,14.0,18.0,11,0.00,,,0.00,0.000000,,2013-08-06 06:11:00,
2013-08-05 23:22:00,84.0,24.0,29.94,South,179,14.0,18.0,11,0.00,,,0.00,0.000000,,2013-08-06 06:22:00,
2013-08-05 23:43:00,82.0,26.0,29.94,South,176,7.0,18.0,13,0.00,,,0.00,0.000000,,2013-08-06 06:43:00,
2013-08-05 23:52:00,82.0,26.0,29.94,South,176,7.0,18.0,13,0.00,,,0.00,0.000000,,2013-08-06 06:52:00,